Location: Irma
(52.9170°N, 111.2330°W)
Time: 17:19:26
(UTC-06:00)

Cosmos 1633 Rocket - Visible Passes

Search period start: 25 April 2015 00:00
Search period end: 05 May 2015 00:00
Orbit: 607 x 626 km, 82.5° (Epoch: 24 April)

Date Brightness Start Highest point End Pass type
(mag) Time Alt. Az. Time Alt. Az. Time Alt. Az.
25 Apr 6.3 04:30:31 10° E 04:31:29 11° E 04:32:40 10° ENE visible
26 Apr 5.8 04:44:56 10° SE 04:47:47 18° E 04:50:45 10° NE visible
27 Apr 5.2 05:00:28 10° SSE 05:04:09 28° E 05:07:55 10° NNE visible
28 Apr 4.2 05:16:26 10° SSE 05:20:36 46° E 05:24:47 10° NNE visible
29 Apr 6.2 03:59:14 10° E 03:59:59 11° E 04:00:59 10° ENE visible
30 Apr 5.7 04:13:30 10° SE 04:16:17 17° E 04:19:12 10° NE visible
01 May 5.1 04:29:00 10° SSE 04:32:39 27° E 04:36:22 10° NNE visible
02 May 4.2 04:44:57 10° SSE 04:49:04 45° E 04:53:15 10° NNE visible
03 May 6.1 03:27:58 10° E 03:28:29 10° E 03:29:13 10° ENE visible
03 May 3.3 05:01:14 10° S 05:05:34 76° E 05:09:56 10° NNE visible
04 May 5.6 03:42:02 10° ESE 03:44:46 17° E 03:47:37 10° NE visible
